Time,TemperatureF,DewpointF,PressureIn,WindDirection,WindDirectionDegrees,WindSpeedMPH,WindSpeedGustMPH,Humidity,HourlyPrecipIn,Conditions,Clouds,dailyrainin,SoftwareType,DateUTC
2013-11-30 00:01:00,18.5,5.4,30.11,NNE,21,3.0,3.0,56,0.00,,,0.00,Wunderground v.1.15,2013-11-30 05:01:00,
2013-11-30 00:02:00,18.4,5.3,30.11,NNW,343,2.0,3.0,56,0.00,,,0.00,Wunderground v.1.15,2013-11-30 05:02:00,
2013-11-30 00:05:00,18.5,5.4,30.11,NNE,26,1.0,3.0,56,0.00,,,0.00,Wunderground v.1.15,2013-11-30 05:05:00,
2013-11-30 00:06:00,18.5,5.4,30.11,NNE,17,2.0,3.0,56,0.00,,,0.00,Wunderground v.1.15,2013-11-30 05:06:00,
2013-11-30 00:11:00,18.5,5.4,30.10,NNE,18,4.0,4.0,56,0.00,,,0.00,Wunderground v.1.15,2013-11-30 05:11:00,
2013-11-30 00:13:00,18.6,5.5,30.10,NNE,18,3.0,4.0,56,0.00,,,0.00,Wunderground v.1.15,2013-11-30 05:13:00,
2013-11-30 00:17:00,18.6,5.5,30.10,NNW,333,4.0,4.0,56,0.00,,,0.00,Wunderground v.1.15,2013-11-30 05:17:00,
2013-11-30 00:22:00,18.6,5.5,30.11,NNW,348,3.0,4.0,56,0.00,,,0.00,Wunderground v.1.15,2013-11-30 05:22:00,
2013-11-30 00:28:00,18.5,5.4,30.11,NNW,337,4.0,4.0,56,0.00,,,0.00,Wunderground v.1.15,2013-11-30 05:28:00,
2013-11-30 00:34:00,18.5,5.4,30.11,North,9,4.0,4.0,56,0.00,,,0.00,Wunderground v.1.15,2013-11-30 05:34:00,
2013-11-30 00:40:00,18.4,5.7,30.11,North,350,3.0,5.0,57,0.00,,,0.00,Wunderground v.1.15,2013-11-30 05:40:00,
2013-11-30 00:45:00,18.3,5.6,30.11,NNW,331,3.0,3.0,57,0.00,,,0.00,Wunderground v.1.15,2013-11-30 05:45:00,
2013-11-30 00:50:00,18.3,5.6,30.11,NNE,24,4.0,4.0,57,0.00,,,0.00,Wunderground v.1.15,2013-11-30 05:50:00,
2013-11-30 00:56:00,18.3,6.0,30.10,NNE,17,4.0,5.0,58,0.00,,,0.00,Wunderground v.1.15,2013-11-30 05:56:00,
2013-11-30 01:01:00,18.2,5.9,30.10,North,355,3.0,3.0,58,0.00,,,0.00,Wunderground v.1.15,2013-11-30 06:01:00,
2013-11-30 01:07:00,18.1,5.8,30.11,NNE,18,3.0,5.0,58,0.00,,,0.00,Wunderground v.1.15,2013-11-30 06:07:00,
2013-11-30 01:12:00,18.1,6.2,30.11,WNW,296,2.0,4.0,59,0.00,,,0.00,Wunderground v.1.15,2013-11-30 06:12:00,
2013-11-30 01:18:00,18.0,6.1,30.11,North,11,2.0,4.0,59,0.00,,,0.00,Wunderground v.1.15,2013-11-30 06:18:00,
2013-11-30 01:23:00,18.1,6.2,30.11,NNE,26,5.0,5.0,59,0.00,,,0.00,Wunderground v.1.15,2013-11-30 06:23:00,
2013-11-30 01:29:00,18.0,6.1,30.11,NNW,345,3.0,5.0,59,0.00,,,0.00,Wunderground v.1.15,2013-11-30 06:29:00,
2013-11-30 01:34:00,18.0,6.4,30.12,NNE,13,2.0,5.0,60,0.00,,,0.00,Wunderground v.1.15,2013-11-30 06:34:00,
2013-11-30 01:40:00,17.9,6.3,30.12,North,349,2.0,5.0,60,0.00,,,0.00,Wunderground v.1.15,2013-11-30 06:40:00,
2013-11-30 01:46:00,17.8,6.2,30.12,NNE,30,2.0,5.0,60,0.00,,,0.00,Wunderground v.1.15,2013-11-30 06:46:00,
2013-11-30 01:52:00,17.7,6.2,30.12,NNW,341,4.0,4.0,60,0.00,,,0.00,Wunderground v.1.15,2013-11-30 06:52:00,
2013-11-30 01:58:00,17.6,6.1,30.12,NNE,15,3.0,5.0,60,0.00,,,0.00,Wunderground v.1.15,2013-11-30 06:58:00,
2013-11-30 02:03:00,17.6,6.1,30.12,WNW,297,2.0,5.0,60,0.00,,,0.00,Wunderground v.1.15,2013-11-30 07:03:00,
2013-11-30 02:08:00,17.5,6.0,30.12,NNE,30,2.0,5.0,60,0.00,,,0.00,Wunderground v.1.15,2013-11-30 07:08:00,
2013-11-30 02:13:00,17.5,6.0,30.13,North,355,4.0,5.0,60,0.00,,,0.00,Wunderground v.1.15,2013-11-30 07:13:00,
2013-11-30 02:18:00,17.5,6.0,30.12,NNE,13,2.0,5.0,60,0.00,,,0.00,Wunderground v.1.15,2013-11-30 07:18:00,
2013-11-30 02:23:00,17.4,5.9,30.13,NNE,24,2.0,2.0,60,0.00,,,0.00,Wunderground v.1.15,2013-11-30 07:23:00,
2013-11-30 02:28:00,17.3,6.1,30.13,NNE,26,2.0,4.0,61,0.00,,,0.00,Wunderground v.1.15,2013-11-30 07:28:00,
2013-11-30 02:33:00,17.3,6.1,30.13,NNE,12,3.0,3.0,61,0.00,,,0.00,Wunderground v.1.15,2013-11-30 07:33:00,
2013-11-30 02:38:00,17.2,6.0,30.13,NNE,28,0.0,5.0,61,0.00,,,0.00,Wunderground v.1.15,2013-11-30 07:38:00,
2013-11-30 02:44:00,17.0,6.2,30.13,NNW,329,1.0,2.0,62,0.00,,,0.00,Wunderground v.1.15,2013-11-30 07:44:00,
2013-11-30 02:50:00,16.8,6.0,30.13,WNW,302,3.0,3.0,62,0.00,,,0.00,Wunderground v.1.15,2013-11-30 07:50:00,
2013-11-30 02:55:00,16.6,6.2,30.13,NNW,333,2.0,4.0,63,0.00,,,0.00,Wunderground v.1.15,2013-11-30 07:55:00,
2013-11-30 03:01:00,16.6,6.2,30.13,NW,313,1.0,2.0,63,0.00,,,0.00,Wunderground v.1.15,2013-11-30 08:01:00,
2013-11-30 03:06:00,16.6,6.2,30.13,NNW,336,2.0,4.0,63,0.00,,,0.00,Wunderground v.1.15,2013-11-30 08:06:00,
2013-11-30 03:11:00,16.6,6.2,30.12,NW,304,0.0,2.0,63,0.00,,,0.00,Wunderground v.1.15,2013-11-30 08:11:00,
2013-11-30 03:18:00,16.6,6.2,30.13,NNW,329,1.0,2.0,63,0.00,,,0.00,Wunderground v.1.15,2013-11-30 08:18:00,
2013-11-30 03:24:00,16.5,6.4,30.13,WNW,299,1.0,1.0,64,0.00,,,0.00,Wunderground v.1.15,2013-11-30 08:24:00,
2013-11-30 03:29:00,16.5,6.4,30.13,NW,313,1.0,2.0,64,0.00,,,0.00,Wunderground v.1.15,2013-11-30 08:29:00,
2013-11-30 03:34:00,16.4,6.3,30.13,WNW,284,0.0,2.0,64,0.00,,,0.00,Wunderground v.1.15,2013-11-30 08:34:00,
2013-11-30 03:39:00,16.4,6.3,30.13,NW,306,1.0,2.0,64,0.00,,,0.00,Wunderground v.1.15,2013-11-30 08:39:00,
2013-11-30 03:44:00,16.3,6.6,30.13,NW,307,0.0,1.0,65,0.00,,,0.00,Wunderground v.1.15,2013-11-30 08:44:00,
2013-11-30 03:49:00,16.2,6.5,30.13,NW,311,0.0,2.0,65,0.00,,,0.00,Wunderground v.1.15,2013-11-30 08:49:00,
2013-11-30 03:54:00,16.1,6.4,30.13,NW,322,0.0,1.0,65,0.00,,,0.00,Wunderground v.1.15,2013-11-30 08:54:00,
2013-11-30 04:01:00,16.0,6.6,30.13,WNW,300,0.0,0.0,66,0.00,,,0.00,Wunderground v.1.15,2013-11-30 09:01:00,
2013-11-30 04:08:00,15.9,6.5,30.13,NNW,334,1.0,1.0,66,0.00,,,0.00,Wunderground v.1.15,2013-11-30 09:08:00,
2013-11-30 04:13:00,15.8,6.4,30.13,NW,317,0.0,1.0,66,0.00,,,0.00,Wunderground v.1.15,2013-11-30 09:13:00,
2013-11-30 04:18:00,15.7,6.7,30.13,WNW,298,1.0,1.0,67,0.00,,,0.00,Wunderground v.1.15,2013-11-30 09:18:00,
2013-11-30 04:23:00,15.6,6.6,30.13,NW,311,1.0,1.0,67,0.00,,,0.00,Wunderground v.1.15,2013-11-30 09:23:00,
2013-11-30 04:28:00,15.7,6.7,30.13,NW,305,1.0,2.0,67,0.00,,,0.00,Wunderground v.1.15,2013-11-30 09:28:00,
2013-11-30 04:33:00,15.7,6.7,30.13,NW,314,0.0,1.0,67,0.00,,,0.00,Wunderground v.1.15,2013-11-30 09:33:00,
2013-11-30 04:38:00,15.7,6.7,30.13,NW,307,1.0,1.0,67,0.00,,,0.00,Wunderground v.1.15,2013-11-30 09:38:00,
2013-11-30 04:43:00,15.6,6.6,30.13,NW,313,0.0,1.0,67,0.00,,,0.00,Wunderground v.1.15,2013-11-30 09:43:00,
2013-11-30 04:48:00,15.5,6.5,30.14,West,271,0.0,1.0,67,0.00,,,0.00,Wunderground v.1.15,2013-11-30 09:48:00,
2013-11-30 04:53:00,15.4,6.7,30.13,West,271,0.0,0.0,68,0.00,,,0.00,Wunderground v.1.15,2013-11-30 09:53:00,
2013-11-30 04:58:00,15.1,6.8,30.14,NNE,13,0.0,1.0,69,0.00,,,0.00,Wunderground v.1.15,2013-11-30 09:58:00,
2013-11-30 05:03:00,14.8,6.8,30.14,SE,133,0.0,0.0,70,0.00,,,0.00,Wunderground v.1.15,2013-11-30 10:03:00,
2013-11-30 05:08:00,14.0,7.2,30.14,SSE,153,0.0,0.0,74,0.00,,,0.00,Wunderground v.1.15,2013-11-30 10:08:00,
2013-11-30 05:13:00,13.3,6.9,30.14,SSE,153,0.0,0.0,75,0.00,,,0.00,Wunderground v.1.15,2013-11-30 10:13:00,
2013-11-30 05:18:00,12.1,6.0,30.14,SSE,154,0.0,0.0,76,0.00,,,0.00,Wunderground v.1.15,2013-11-30 10:18:00,
2013-11-30 05:23:00,12.1,6.0,30.14,SSE,154,0.0,0.0,76,0.00,,,0.00,Wunderground v.1.15,2013-11-30 10:23:00,
2013-11-30 05:28:00,-999.9,-99.9,30.13,North,32767,-999.0,0.0,255,-99.99,,,0.00,Wunderground v.1.15,2013-11-30 10:28:00,
2013-11-30 05:33:00,-999.9,-99.9,30.14,North,32767,-999.0,-999.0,255,-99.99,,,0.00,Wunderground v.1.15,2013-11-30 10:33:00,
2013-11-30 05:38:00,-999.9,-99.9,30.14,North,32767,-999.0,-999.0,255,-99.99,,,0.00,Wunderground v.1.15,2013-11-30 10:38:00,
2013-11-30 05:43:00,-999.9,-99.9,30.14,North,32767,-999.0,-999.0,255,-99.99,,,0.00,Wunderground v.1.15,2013-11-30 10:43:00,
2013-11-30 05:48:00,-999.9,-99.9,30.14,North,32767,-999.0,-999.0,255,-99.99,,,0.00,Wunderground v.1.15,2013-11-30 10:48:00,
2013-11-30 05:53:00,-999.9,-99.9,30.14,North,32767,-999.0,-999.0,255,-99.99,,,0.00,Wunderground v.1.15,2013-11-30 10:53:00,
2013-11-30 05:58:00,-999.9,-99.9,30.14,North,32767,-999.0,-999.0,255,-99.99,,,0.00,Wunderground v.1.15,2013-11-30 10:58:00,
2013-11-30 06:03:00,-999.9,-99.9,30.14,North,32767,-999.0,-999.0,255,-99.99,,,0.00,Wunderground v.1.15,2013-11-30 11:03:00,
2013-11-30 06:08:00,-999.9,-99.9,30.14,North,32767,-999.0,-999.0,255,-99.99,,,0.00,Wunderground v.1.15,2013-11-30 11:08:00,
2013-11-30 06:13:00,-999.9,-99.9,30.14,North,32767,-999.0,-999.0,255,-99.99,,,0.00,Wunderground v.1.15,2013-11-30 11:13:00,
2013-11-30 06:18:00,-999.9,-99.9,30.14,North,32767,-999.0,-999.0,255,-99.99,,,0.00,Wunderground v.1.15,2013-11-30 11:18:00,
2013-11-30 06:23:00,-999.9,-99.9,30.14,North,32767,-999.0,-999.0,255,-99.99,,,0.00,Wunderground v.1.15,2013-11-30 11:23:00,
2013-11-30 06:28:00,-999.9,-99.9,30.14,North,32767,-999.0,-999.0,255,-99.99,,,0.00,Wunderground v.1.15,2013-11-30 11:28:00,
2013-11-30 06:33:00,-999.9,-99.9,30.14,North,32767,-999.0,-999.0,255,-99.99,,,0.00,Wunderground v.1.15,2013-11-30 11:33:00,
2013-11-30 06:38:00,-999.9,-99.9,30.14,North,32767,-999.0,-999.0,255,-99.99,,,0.00,Wunderground v.1.15,2013-11-30 11:38:00,
2013-11-30 06:43:00,-999.9,-99.9,30.14,North,32767,-999.0,-999.0,255,-99.99,,,0.00,Wunderground v.1.15,2013-11-30 11:43:00,
2013-11-30 06:48:00,-999.9,-99.9,30.14,North,32767,-999.0,-999.0,255,-99.99,,,0.00,Wunderground v.1.15,2013-11-30 11:48:00,
2013-11-30 06:53:00,-999.9,-99.9,30.15,North,32767,-999.0,-999.0,255,-99.99,,,0.00,Wunderground v.1.15,2013-11-30 11:53:00,
2013-11-30 06:59:00,-999.9,-99.9,30.15,North,32767,-999.0,-999.0,255,-99.99,,,0.00,Wunderground v.1.15,2013-11-30 11:59:00,
2013-11-30 07:04:00,-999.9,-99.9,30.15,North,32767,-999.0,-999.0,255,-99.99,,,0.00,Wunderground v.1.15,2013-11-30 12:04:00,
2013-11-30 07:09:00,-999.9,-99.9,30.15,North,32767,-999.0,-999.0,255,-99.99,,,0.00,Wunderground v.1.15,2013-11-30 12:09:00,
2013-11-30 07:14:00,-999.9,-99.9,30.15,North,32767,-999.0,-999.0,255,-99.99,,,0.00,Wunderground v.1.15,2013-11-30 12:14:00,
2013-11-30 07:19:00,-999.9,-99.9,30.15,North,32767,-999.0,-999.0,255,-99.99,,,0.00,Wunderground v.1.15,2013-11-30 12:19:00,
2013-11-30 07:24:00,16.2,5.8,30.15,NE,44,2.0,2.0,63,0.00,,,0.00,Wunderground v.1.15,2013-11-30 12:24:00,
2013-11-30 07:29:00,16.4,6.0,30.15,NNW,340,2.0,4.0,63,0.00,,,0.00,Wunderground v.1.15,2013-11-30 12:29:00,
2013-11-30 07:34:00,16.6,5.8,30.15,NE,42,2.0,4.0,62,0.00,,,0.00,Wunderground v.1.15,2013-11-30 12:34:00,
2013-11-30 07:39:00,16.8,6.0,30.15,NNE,27,2.0,5.0,62,0.00,,,0.00,Wunderground v.1.15,2013-11-30 12:39:00,
2013-11-30 07:44:00,17.1,6.3,30.15,NW,323,2.0,4.0,62,0.00,,,0.00,Wunderground v.1.15,2013-11-30 12:44:00,
2013-11-30 07:49:00,17.4,6.2,30.15,NNW,348,2.0,4.0,61,0.00,,,0.00,Wunderground v.1.15,2013-11-30 12:49:00,
2013-11-30 07:55:00,17.7,6.5,30.15,WNW,292,3.0,3.0,61,0.00,,,0.00,Wunderground v.1.15,2013-11-30 12:55:00,
2013-11-30 08:01:00,17.9,6.7,30.15,ENE,67,3.0,3.0,61,0.00,,,0.00,Wunderground v.1.15,2013-11-30 13:01:00,
2013-11-30 08:06:00,18.2,6.6,30.15,NW,306,2.0,6.0,60,0.00,,,0.00,Wunderground v.1.15,2013-11-30 13:06:00,
2013-11-30 08:11:00,18.8,7.2,30.16,NW,310,1.0,5.0,60,0.00,,,0.00,Wunderground v.1.15,2013-11-30 13:11:00,
2013-11-30 08:16:00,19.3,7.3,30.16,WNW,286,2.0,5.0,59,0.00,,,0.00,Wunderground v.1.15,2013-11-30 13:16:00,
2013-11-30 08:21:00,19.6,6.8,30.16,NW,323,1.0,2.0,57,0.00,,,0.00,Wunderground v.1.15,2013-11-30 13:21:00,
2013-11-30 08:26:00,19.8,6.6,30.16,NNE,21,5.0,5.0,56,0.00,,,0.00,Wunderground v.1.15,2013-11-30 13:26:00,
2013-11-30 08:31:00,19.9,6.7,30.16,NNE,30,3.0,5.0,56,0.00,,,0.00,Wunderground v.1.15,2013-11-30 13:31:00,
2013-11-30 08:38:00,20.1,6.1,30.16,NW,325,4.0,7.0,54,0.00,,,0.00,Wunderground v.1.15,2013-11-30 13:38:00,
2013-11-30 08:43:00,20.3,6.3,30.15,NNE,17,5.0,6.0,54,0.00,,,0.00,Wunderground v.1.15,2013-11-30 13:43:00,
2013-11-30 08:51:00,20.7,6.7,30.16,NNE,25,4.0,4.0,54,0.00,,,0.00,Wunderground v.1.15,2013-11-30 13:51:00,
2013-11-30 08:56:00,20.9,6.4,30.15,NE,42,6.0,7.0,53,0.00,,,0.00,Wunderground v.1.15,2013-11-30 13:56:00,
2013-11-30 09:01:00,20.9,6.4,30.15,NNW,335,6.0,6.0,53,0.00,,,0.00,Wunderground v.1.15,2013-11-30 14:01:00,
2013-11-30 09:06:00,21.1,6.6,30.15,NNW,332,5.0,9.0,53,0.00,,,0.00,Wunderground v.1.15,2013-11-30 14:06:00,
2013-11-30 09:11:00,21.0,6.1,30.15,NNE,17,5.0,8.0,52,0.00,,,0.00,Wunderground v.1.15,2013-11-30 14:11:00,
2013-11-30 09:17:00,21.0,6.1,30.15,NNW,342,2.0,8.0,52,0.00,,,0.00,Wunderground v.1.15,2013-11-30 14:17:00,
2013-11-30 09:22:00,21.5,6.6,30.15,North,349,1.0,5.0,52,0.00,,,0.00,Wunderground v.1.15,2013-11-30 14:22:00,
2013-11-30 09:27:00,21.8,6.4,30.15,NNW,342,3.0,7.0,51,0.00,,,0.00,Wunderground v.1.15,2013-11-30 14:27:00,
2013-11-30 09:32:00,21.9,6.5,30.15,NNW,336,5.0,5.0,51,0.00,,,0.00,Wunderground v.1.15,2013-11-30 14:32:00,
2013-11-30 09:38:00,22.0,6.6,30.15,NNE,33,4.0,7.0,51,0.00,,,0.00,Wunderground v.1.15,2013-11-30 14:38:00,
2013-11-30 09:43:00,22.5,6.6,30.15,ENE,63,2.0,5.0,50,0.00,,,0.00,Wunderground v.1.15,2013-11-30 14:43:00,
2013-11-30 09:49:00,23.0,6.7,30.15,NNW,332,3.0,5.0,49,0.00,,,0.00,Wunderground v.1.15,2013-11-30 14:49:00,
2013-11-30 09:54:00,23.2,6.8,30.15,West,274,2.0,3.0,49,0.00,,,0.00,Wunderground v.1.15,2013-11-30 14:54:00,
2013-11-30 09:59:00,23.2,5.9,30.15,NNE,22,2.0,6.0,47,0.00,,,0.00,Wunderground v.1.15,2013-11-30 14:59:00,
2013-11-30 10:04:00,23.2,5.9,30.15,NNE,29,4.0,7.0,47,0.00,,,0.00,Wunderground v.1.15,2013-11-30 15:04:00,
2013-11-30 10:09:00,23.3,6.0,30.14,East,80,1.0,7.0,47,0.00,,,0.00,Wunderground v.1.15,2013-11-30 15:09:00,
2013-11-30 10:14:00,23.3,6.0,30.14,NNE,32,5.0,5.0,47,0.00,,,0.00,Wunderground v.1.15,2013-11-30 15:14:00,
2013-11-30 10:19:00,23.7,6.4,30.14,ENE,62,2.0,5.0,47,0.00,,,0.00,Wunderground v.1.15,2013-11-30 15:19:00,
2013-11-30 10:24:00,24.3,6.9,30.13,ENE,67,3.0,7.0,47,0.00,,,0.00,Wunderground v.1.15,2013-11-30 15:24:00,
2013-11-30 10:29:00,24.4,7.0,30.13,NNE,22,1.0,7.0,47,0.00,,,0.00,Wunderground v.1.15,2013-11-30 15:29:00,
2013-11-30 10:34:00,24.6,7.2,30.13,NNE,33,2.0,6.0,47,0.00,,,0.00,Wunderground v.1.15,2013-11-30 15:34:00,
2013-11-30 10:39:00,24.7,7.3,30.12,East,93,0.0,6.0,47,0.00,,,0.00,Wunderground v.1.15,2013-11-30 15:39:00,
2013-11-30 10:45:00,25.0,8.0,30.12,East,86,0.0,4.0,48,0.00,,,0.00,Wunderground v.1.15,2013-11-30 15:45:00,
2013-11-30 10:52:00,25.1,8.6,30.12,SE,138,1.0,5.0,49,0.00,,,0.00,Wunderground v.1.15,2013-11-30 15:52:00,
2013-11-30 10:58:00,25.6,8.6,30.12,NE,53,3.0,5.0,48,0.00,,,0.00,Wunderground v.1.15,2013-11-30 15:58:00,
2013-11-30 11:04:00,25.5,9.0,30.11,NE,56,3.0,5.0,49,0.00,,,0.00,Wunderground v.1.15,2013-11-30 16:04:00,
2013-11-30 11:11:00,25.5,9.4,30.10,NNW,343,4.0,4.0,50,0.00,,,0.00,Wunderground v.1.15,2013-11-30 16:11:00,
2013-11-30 11:16:00,25.6,9.1,30.10,ENE,76,0.0,6.0,49,0.00,,,0.00,Wunderground v.1.15,2013-11-30 16:16:00,
2013-11-30 11:21:00,26.3,9.7,30.10,NE,42,2.0,2.0,49,0.00,,,0.00,Wunderground v.1.15,2013-11-30 16:21:00,
2013-11-30 11:26:00,26.2,10.9,30.10,ENE,75,0.0,8.0,52,0.00,,,0.00,Wunderground v.1.15,2013-11-30 16:26:00,
2013-11-30 11:31:00,26.4,11.1,30.10,East,84,7.0,7.0,52,0.00,,,0.00,Wunderground v.1.15,2013-11-30 16:31:00,
2013-11-30 11:36:00,26.3,11.0,30.10,East,100,2.0,8.0,52,0.00,,,0.00,Wunderground v.1.15,2013-11-30 16:36:00,
2013-11-30 11:41:00,26.6,11.7,30.09,WNW,300,0.0,3.0,53,0.00,,,0.00,Wunderground v.1.15,2013-11-30 16:41:00,
2013-11-30 11:46:00,27.1,11.8,30.09,NNE,14,5.0,7.0,52,0.00,,,0.00,Wunderground v.1.15,2013-11-30 16:46:00,
2013-11-30 11:51:00,27.0,11.7,30.09,NW,318,0.0,4.0,52,0.00,,,0.00,Wunderground v.1.15,2013-11-30 16:51:00,
2013-11-30 11:56:00,27.1,11.8,30.09,NNW,344,2.0,5.0,52,0.00,,,0.00,Wunderground v.1.15,2013-11-30 16:56:00,
2013-11-30 12:01:00,27.3,12.4,30.08,ENE,57,4.0,7.0,53,0.00,,,0.00,Wunderground v.1.15,2013-11-30 17:01:00,
2013-11-30 12:06:00,27.5,12.6,30.08,NNE,15,2.0,8.0,53,0.00,,,0.00,Wunderground v.1.15,2013-11-30 17:06:00,
2013-11-30 12:11:00,27.5,12.2,30.08,ENE,71,0.0,3.0,52,0.00,,,0.00,Wunderground v.1.15,2013-11-30 17:11:00,
2013-11-30 12:17:00,27.5,12.2,30.07,ENE,63,1.0,3.0,52,0.00,,,0.00,Wunderground v.1.15,2013-11-30 17:17:00,
2013-11-30 12:22:00,28.2,12.8,30.07,ESE,115,0.0,2.0,52,0.00,,,0.00,Wunderground v.1.15,2013-11-30 17:22:00,
2013-11-30 12:27:00,28.8,13.4,30.07,ESE,121,4.0,4.0,52,0.00,,,0.00,Wunderground v.1.15,2013-11-30 17:27:00,
2013-11-30 12:32:00,28.8,13.4,30.06,ENE,57,3.0,4.0,52,0.00,,,0.00,Wunderground v.1.15,2013-11-30 17:32:00,
2013-11-30 12:38:00,29.3,13.8,30.06,East,86,5.0,5.0,52,0.00,,,0.00,Wunderground v.1.15,2013-11-30 17:38:00,
2013-11-30 12:43:00,29.4,13.9,30.06,ESE,107,3.0,3.0,52,0.00,,,0.00,Wunderground v.1.15,2013-11-30 17:43:00,
2013-11-30 12:49:00,30.0,14.0,30.06,East,101,3.0,5.0,51,0.00,,,0.00,Wunderground v.1.15,2013-11-30 17:49:00,
2013-11-30 12:54:00,30.0,14.0,30.05,SE,129,2.0,6.0,51,0.00,,,0.00,Wunderground v.1.15,2013-11-30 17:54:00,
2013-11-30 12:59:00,30.3,14.8,30.05,SE,132,9.0,9.0,52,0.00,,,0.00,Wunderground v.1.15,2013-11-30 17:59:00,
2013-11-30 13:04:00,30.2,14.2,30.05,East,80,2.0,8.0,51,0.00,,,0.00,Wunderground v.1.15,2013-11-30 18:04:00,
2013-11-30 13:09:00,30.5,14.9,30.04,SSE,156,6.0,11.0,52,0.00,,,0.00,Wunderground v.1.15,2013-11-30 18:09:00,
2013-11-30 13:14:00,30.7,14.2,30.04,SSE,155,2.0,9.0,50,0.00,,,0.00,Wunderground v.1.15,2013-11-30 18:14:00,
2013-11-30 13:19:00,30.8,14.3,30.04,SSE,148,4.0,9.0,50,0.00,,,0.00,Wunderground v.1.15,2013-11-30 18:19:00,
2013-11-30 13:24:00,30.7,14.2,30.04,East,100,5.0,7.0,50,0.00,,,0.00,Wunderground v.1.15,2013-11-30 18:24:00,
2013-11-30 13:29:00,30.3,14.8,30.03,SW,215,1.0,7.0,52,0.00,,,0.00,Wunderground v.1.15,2013-11-30 18:29:00,
2013-11-30 13:34:00,30.9,14.9,30.03,SE,133,4.0,7.0,51,0.00,,,0.00,Wunderground v.1.15,2013-11-30 18:34:00,
2013-11-30 13:39:00,31.2,14.7,30.03,ESE,123,4.0,8.0,50,0.00,,,0.00,Wunderground v.1.15,2013-11-30 18:39:00,
2013-11-30 13:44:00,31.2,14.7,30.02,SE,146,6.0,8.0,50,0.00,,,0.00,Wunderground v.1.15,2013-11-30 18:44:00,
2013-11-30 13:49:00,31.3,14.8,30.02,SSE,153,3.0,8.0,50,0.00,,,0.00,Wunderground v.1.15,2013-11-30 18:49:00,
2013-11-30 13:55:00,31.3,14.8,30.02,ESE,117,5.0,10.0,50,0.00,,,0.00,Wunderground v.1.15,2013-11-30 18:55:00,
2013-11-30 14:00:00,31.1,15.1,30.02,East,97,2.0,2.0,51,0.00,,,0.00,Wunderground v.1.15,2013-11-30 19:00:00,
2013-11-30 14:06:00,31.3,14.8,30.01,SE,132,1.0,5.0,50,0.00,,,0.00,Wunderground v.1.15,2013-11-30 19:06:00,
2013-11-30 14:13:00,31.2,14.2,30.01,South,191,6.0,6.0,49,0.00,,,0.00,Wunderground v.1.15,2013-11-30 19:13:00,
2013-11-30 14:19:00,31.4,13.9,30.01,SE,131,8.0,8.0,48,0.00,,,0.00,Wunderground v.1.15,2013-11-30 19:19:00,
2013-11-30 14:24:00,31.1,13.2,30.01,South,169,2.0,6.0,47,0.00,,,0.00,Wunderground v.1.15,2013-11-30 19:24:00,
2013-11-30 14:29:00,31.3,13.9,30.01,SE,130,3.0,8.0,48,0.00,,,0.00,Wunderground v.1.15,2013-11-30 19:29:00,
2013-11-30 14:34:00,31.2,14.2,30.00,SW,217,1.0,7.0,49,0.00,,,0.00,Wunderground v.1.15,2013-11-30 19:34:00,
2013-11-30 14:39:00,31.4,14.4,30.00,ESE,118,1.0,8.0,49,0.00,,,0.00,Wunderground v.1.15,2013-11-30 19:39:00,
2013-11-30 14:44:00,31.4,14.4,30.00,SE,126,4.0,8.0,49,0.00,,,0.00,Wunderground v.1.15,2013-11-30 19:44:00,
2013-11-30 14:49:00,31.2,14.7,30.00,SE,140,1.0,8.0,50,0.00,,,0.00,Wunderground v.1.15,2013-11-30 19:49:00,
2013-11-30 14:54:00,31.1,14.6,29.99,SE,136,1.0,3.0,50,0.00,,,0.00,Wunderground v.1.15,2013-11-30 19:54:00,
2013-11-30 14:59:00,31.2,14.7,29.99,East,100,6.0,8.0,50,0.00,,,0.00,Wunderground v.1.15,2013-11-30 19:59:00,
2013-11-30 15:04:00,31.0,15.0,29.99,SE,126,3.0,6.0,51,0.00,,,0.00,Wunderground v.1.15,2013-11-30 20:04:00,
2013-11-30 15:09:00,30.7,14.2,29.99,SE,130,4.0,11.0,50,0.00,,,0.00,Wunderground v.1.15,2013-11-30 20:09:00,
2013-11-30 15:14:00,30.6,14.1,29.99,SE,125,2.0,7.0,50,0.00,,,0.00,Wunderground v.1.15,2013-11-30 20:14:00,
2013-11-30 15:19:00,30.5,14.0,29.99,SSE,160,3.0,7.0,50,0.00,,,0.00,Wunderground v.1.15,2013-11-30 20:19:00,
2013-11-30 15:26:00,30.3,13.9,29.99,SE,143,3.0,4.0,50,0.00,,,0.00,Wunderground v.1.15,2013-11-30 20:26:00,
2013-11-30 15:31:00,30.3,13.4,29.99,SE,131,3.0,5.0,49,0.00,,,0.00,Wunderground v.1.15,2013-11-30 20:31:00,
2013-11-30 15:36:00,30.1,12.7,29.99,SE,124,3.0,5.0,48,0.00,,,0.00,Wunderground v.1.15,2013-11-30 20:36:00,
2013-11-30 15:41:00,30.0,12.7,29.99,SE,146,6.0,6.0,48,0.00,,,0.00,Wunderground v.1.15,2013-11-30 20:41:00,
2013-11-30 15:46:00,29.9,12.6,29.99,SSE,156,1.0,6.0,48,0.00,,,0.00,Wunderground v.1.15,2013-11-30 20:46:00,
2013-11-30 15:51:00,29.8,12.9,29.99,ESE,113,2.0,3.0,49,0.00,,,0.00,Wunderground v.1.15,2013-11-30 20:51:00,
2013-11-30 15:56:00,29.7,12.8,29.99,SE,146,3.0,6.0,49,0.00,,,0.00,Wunderground v.1.15,2013-11-30 20:56:00,
2013-11-30 16:02:00,29.6,12.8,29.99,SSE,157,1.0,3.0,49,0.00,,,0.00,Wunderground v.1.15,2013-11-30 21:02:00,
2013-11-30 16:07:00,29.5,13.1,29.99,SE,139,2.0,4.0,50,0.00,,,0.00,Wunderground v.1.15,2013-11-30 21:07:00,
2013-11-30 16:12:00,29.4,13.0,29.98,SE,128,2.0,3.0,50,0.00,,,0.00,Wunderground v.1.15,2013-11-30 21:12:00,
2013-11-30 16:17:00,29.2,12.8,29.98,South,180,3.0,4.0,50,0.00,,,0.00,Wunderground v.1.15,2013-11-30 21:17:00,
2013-11-30 16:24:00,29.1,13.2,29.98,SSE,148,0.0,3.0,51,0.00,,,0.00,Wunderground v.1.15,2013-11-30 21:24:00,
2013-11-30 16:31:00,28.9,13.0,29.98,SE,126,1.0,1.0,51,0.00,,,0.00,Wunderground v.1.15,2013-11-30 21:31:00,
2013-11-30 16:37:00,28.8,13.4,29.98,ESE,118,1.0,1.0,52,0.00,,,0.00,Wunderground v.1.15,2013-11-30 21:37:00,
2013-11-30 16:42:00,28.6,13.2,29.98,SSE,155,1.0,3.0,52,0.00,,,0.00,Wunderground v.1.15,2013-11-30 21:42:00,
2013-11-30 16:49:00,28.5,13.1,29.97,SE,135,0.0,3.0,52,0.00,,,0.00,Wunderground v.1.15,2013-11-30 21:49:00,
2013-11-30 16:54:00,28.3,13.3,29.97,SE,130,0.0,1.0,53,0.00,,,0.00,Wunderground v.1.15,2013-11-30 21:54:00,
2013-11-30 16:59:00,28.2,13.2,29.97,SE,130,0.0,2.0,53,0.00,,,0.00,Wunderground v.1.15,2013-11-30 21:59:00,
2013-11-30 17:04:00,28.1,13.1,29.97,SE,130,0.0,1.0,53,0.00,,,0.00,Wunderground v.1.15,2013-11-30 22:04:00,
2013-11-30 17:09:00,27.9,13.4,29.96,South,169,0.0,1.0,54,0.00,,,0.00,Wunderground v.1.15,2013-11-30 22:09:00,
2013-11-30 17:14:00,27.8,13.3,29.97,SSE,161,0.0,1.0,54,0.00,,,0.00,Wunderground v.1.15,2013-11-30 22:14:00,
2013-11-30 17:19:00,27.8,13.3,29.97,SE,128,1.0,1.0,54,0.00,,,0.00,Wunderground v.1.15,2013-11-30 22:19:00,
2013-11-30 17:26:00,27.7,13.2,29.96,SE,131,0.0,1.0,54,0.00,,,0.00,Wunderground v.1.15,2013-11-30 22:26:00,
2013-11-30 17:32:00,27.6,13.1,29.96,SSE,157,0.0,1.0,54,0.00,,,0.00,Wunderground v.1.15,2013-11-30 22:32:00,
2013-11-30 17:38:00,27.6,13.1,29.96,ESE,113,0.0,2.0,54,0.00,,,0.00,Wunderground v.1.15,2013-11-30 22:38:00,
2013-11-30 17:43:00,27.7,13.2,29.96,ESE,123,2.0,2.0,54,0.00,,,0.00,Wunderground v.1.15,2013-11-30 22:43:00,
2013-11-30 17:48:00,27.7,13.6,29.96,SSE,155,0.0,2.0,55,0.00,,,0.00,Wunderground v.1.15,2013-11-30 22:48:00,
2013-11-30 17:53:00,27.7,13.6,29.95,SE,142,0.0,2.0,55,0.00,,,0.00,Wunderground v.1.15,2013-11-30 22:53:00,
2013-11-30 17:58:00,27.8,13.7,29.95,SSE,155,0.0,2.0,55,0.00,,,0.00,Wunderground v.1.15,2013-11-30 22:58:00,
2013-11-30 18:03:00,27.8,13.7,29.95,ESE,104,0.0,2.0,55,0.00,,,0.00,Wunderground v.1.15,2013-11-30 23:03:00,
2013-11-30 18:08:00,27.7,13.6,29.95,South,178,1.0,3.0,55,0.00,,,0.00,Wunderground v.1.15,2013-11-30 23:08:00,
2013-11-30 18:14:00,27.6,13.9,29.95,SE,134,2.0,3.0,56,0.00,,,0.00,Wunderground v.1.15,2013-11-30 23:14:00,
2013-11-30 18:21:00,27.7,14.0,29.95,SE,138,3.0,3.0,56,0.00,,,0.00,Wunderground v.1.15,2013-11-30 23:21:00,
2013-11-30 18:28:00,27.7,14.4,29.94,SE,127,0.0,3.0,57,0.00,,,0.00,Wunderground v.1.15,2013-11-30 23:28:00,
2013-11-30 18:33:00,27.7,14.4,29.94,SE,137,0.0,1.0,57,0.00,,,0.00,Wunderground v.1.15,2013-11-30 23:33:00,
2013-11-30 18:38:00,27.6,14.7,29.94,SE,136,1.0,3.0,58,0.00,,,0.00,Wunderground v.1.15,2013-11-30 23:38:00,
2013-11-30 18:43:00,27.6,15.1,29.94,SSE,148,2.0,2.0,59,0.00,,,0.00,Wunderground v.1.15,2013-11-30 23:43:00,
2013-11-30 18:48:00,27.5,14.6,29.94,SSE,153,4.0,4.0,58,0.00,,,0.00,Wunderground v.1.15,2013-11-30 23:48:00,
2013-11-30 18:54:00,27.4,14.9,29.94,SSE,160,1.0,1.0,59,0.00,,,0.00,Wunderground v.1.15,2013-11-30 23:54:00,
2013-11-30 18:59:00,27.3,14.8,29.94,SE,145,1.0,3.0,59,0.00,,,0.00,Wunderground v.1.15,2013-11-30 23:59:00,
2013-11-30 19:04:00,27.3,15.2,29.94,SSE,166,1.0,3.0,60,0.00,,,0.00,Wunderground v.1.15,2013-12-01 00:04:00,
2013-11-30 19:09:00,27.2,15.1,29.93,ESE,109,0.0,3.0,60,0.00,,,0.00,Wunderground v.1.15,2013-12-01 00:09:00,
2013-11-30 19:16:00,27.1,15.0,29.93,South,169,1.0,2.0,60,0.00,,,0.00,Wunderground v.1.15,2013-12-01 00:16:00,
2013-11-30 19:21:00,27.0,14.9,29.93,South,190,0.0,1.0,60,0.00,,,0.00,Wunderground v.1.15,2013-12-01 00:21:00,
2013-11-30 19:27:00,26.9,15.2,29.93,SSE,154,1.0,1.0,61,0.00,,,0.00,Wunderground v.1.15,2013-12-01 00:27:00,
2013-11-30 19:32:00,26.9,15.2,29.93,SE,138,0.0,1.0,61,0.00,,,0.00,Wunderground v.1.15,2013-12-01 00:32:00,
2013-11-30 19:37:00,26.8,15.1,29.92,SE,129,0.0,1.0,61,0.00,,,0.00,Wunderground v.1.15,2013-12-01 00:37:00,
2013-11-30 19:42:00,26.8,15.1,29.92,SSE,168,2.0,2.0,61,0.00,,,0.00,Wunderground v.1.15,2013-12-01 00:42:00,
2013-11-30 19:47:00,26.8,15.1,29.92,SE,125,1.0,2.0,61,0.00,,,0.00,Wunderground v.1.15,2013-12-01 00:47:00,
2013-11-30 19:53:00,26.8,15.5,29.92,SE,143,1.0,1.0,62,0.00,,,0.00,Wunderground v.1.15,2013-12-01 00:53:00,
2013-11-30 19:58:00,26.8,15.5,29.92,SE,129,0.0,2.0,62,0.00,,,0.00,Wunderground v.1.15,2013-12-01 00:58:00,
2013-11-30 20:04:00,26.7,15.4,29.91,SSE,159,0.0,1.0,62,0.00,,,0.00,Wunderground v.1.15,2013-12-01 01:04:00,
2013-11-30 20:13:00,26.6,15.7,29.91,SE,130,0.0,0.0,63,0.00,,,0.00,Wunderground v.1.15,2013-12-01 01:13:00,
2013-11-30 20:19:00,26.6,16.1,29.91,SSE,164,0.0,0.0,64,0.00,,,0.00,Wunderground v.1.15,2013-12-01 01:19:00,
2013-11-30 20:25:00,26.6,16.1,29.91,SE,132,0.0,0.0,64,0.00,,,0.00,Wunderground v.1.15,2013-12-01 01:25:00,
2013-11-30 20:30:00,26.6,16.4,29.91,SSE,148,0.0,0.0,65,0.00,,,0.00,Wunderground v.1.15,2013-12-01 01:30:00,
2013-11-30 20:35:00,26.5,16.3,29.90,SSE,148,0.0,0.0,65,0.00,,,0.00,Wunderground v.1.15,2013-12-01 01:35:00,
2013-11-30 20:40:00,26.6,16.8,29.90,SE,136,0.0,0.0,66,0.00,,,0.00,Wunderground v.1.15,2013-12-01 01:40:00,
2013-11-30 20:43:00,26.6,16.8,29.90,SE,134,1.0,1.0,66,0.00,,,0.00,Wunderground v.1.15,2013-12-01 01:43:00,
2013-11-30 20:48:00,26.7,16.9,29.90,SE,138,1.0,2.0,66,0.00,,,0.00,Wunderground v.1.15,2013-12-01 01:48:00,
2013-11-30 20:53:00,26.8,17.0,29.90,SE,134,0.0,0.0,66,0.00,,,0.00,Wunderground v.1.15,2013-12-01 01:53:00,
2013-11-30 20:58:00,26.7,16.9,29.90,ESE,123,0.0,0.0,66,0.00,,,0.00,Wunderground v.1.15,2013-12-01 01:58:00,
2013-11-30 21:03:00,26.7,17.2,29.89,SE,130,0.0,0.0,67,0.00,,,0.00,Wunderground v.1.15,2013-12-01 02:03:00,
2013-11-30 21:11:00,26.5,17.0,29.89,SE,130,0.0,0.0,67,0.00,,,0.00,Wunderground v.1.15,2013-12-01 02:11:00,
2013-11-30 21:18:00,26.1,17.0,29.89,SE,130,0.0,0.0,68,0.00,,,0.00,Wunderground v.1.15,2013-12-01 02:18:00,
2013-11-30 21:23:00,26.0,17.2,29.88,SE,130,0.0,0.0,69,0.00,,,0.00,Wunderground v.1.15,2013-12-01 02:23:00,
2013-11-30 21:28:00,26.0,17.9,29.88,SE,130,0.0,0.0,71,0.00,,,0.00,Wunderground v.1.15,2013-12-01 02:28:00,
2013-11-30 21:33:00,26.3,18.5,29.88,ESE,106,0.0,0.0,72,0.00,,,0.00,Wunderground v.1.15,2013-12-01 02:33:00,
2013-11-30 21:38:00,26.3,18.2,29.88,ESE,107,0.0,0.0,71,0.00,,,0.00,Wunderground v.1.15,2013-12-01 02:38:00,
2013-11-30 21:43:00,26.4,18.6,29.88,ESE,116,0.0,1.0,72,0.00,,,0.00,Wunderground v.1.15,2013-12-01 02:43:00,
2013-11-30 21:48:00,26.5,18.7,29.88,ESE,116,0.0,1.0,72,0.00,,,0.00,Wunderground v.1.15,2013-12-01 02:48:00,
2013-11-30 21:55:00,26.6,19.1,29.88,ESE,113,0.0,0.0,73,0.00,,,0.00,Wunderground v.1.15,2013-12-01 02:55:00,
2013-11-30 22:01:00,26.9,19.4,29.87,ESE,111,0.0,0.0,73,0.00,,,0.00,Wunderground v.1.15,2013-12-01 03:01:00,
2013-11-30 22:06:00,27.1,19.6,29.87,East,96,0.0,0.0,73,0.00,,,0.00,Wunderground v.1.15,2013-12-01 03:06:00,
2013-11-30 22:12:00,27.3,19.8,29.86,East,101,0.0,0.0,73,0.00,,,0.00,Wunderground v.1.15,2013-12-01 03:12:00,
2013-11-30 22:17:00,27.4,19.9,29.86,ESE,105,0.0,0.0,73,0.00,,,0.00,Wunderground v.1.15,2013-12-01 03:17:00,
2013-11-30 22:22:00,27.5,20.0,29.86,ESE,123,0.0,2.0,73,0.00,,,0.00,Wunderground v.1.15,2013-12-01 03:22:00,
2013-11-30 22:27:00,27.7,19.8,29.86,East,101,1.0,2.0,72,0.00,,,0.00,Wunderground v.1.15,2013-12-01 03:27:00,
2013-11-30 22:32:00,27.7,19.8,29.85,ESE,117,2.0,2.0,72,0.00,,,0.00,Wunderground v.1.15,2013-12-01 03:32:00,
2013-11-30 22:37:00,27.8,19.9,29.85,ESE,112,0.0,2.0,72,0.00,,,0.00,Wunderground v.1.15,2013-12-01 03:37:00,
2013-11-30 22:42:00,27.9,20.0,29.85,ESE,110,0.0,1.0,72,0.00,,,0.00,Wunderground v.1.15,2013-12-01 03:42:00,
2013-11-30 22:47:00,27.9,20.0,29.85,ESE,106,0.0,1.0,72,0.00,,,0.00,Wunderground v.1.15,2013-12-01 03:47:00,
2013-11-30 22:53:00,28.0,20.1,29.85,ESE,119,1.0,1.0,72,0.00,,,0.00,Wunderground v.1.15,2013-12-01 03:53:00,
2013-11-30 22:58:00,28.0,20.1,29.85,ESE,108,1.0,1.0,72,0.00,,,0.00,Wunderground v.1.15,2013-12-01 03:58:00,
2013-11-30 23:05:00,28.0,20.1,29.84,ESE,111,1.0,1.0,72,0.00,,,0.00,Wunderground v.1.15,2013-12-01 04:05:00,
2013-11-30 23:11:00,28.0,20.1,29.84,ESE,113,0.0,1.0,72,0.00,,,0.00,Wunderground v.1.15,2013-12-01 04:11:00,
2013-11-30 23:16:00,27.9,20.0,29.83,SE,146,1.0,1.0,72,0.00,,,0.00,Wunderground v.1.15,2013-12-01 04:16:00,
2013-11-30 23:21:00,27.9,20.4,29.82,ESE,114,0.0,1.0,73,0.00,,,0.00,Wunderground v.1.15,2013-12-01 04:21:00,
2013-11-30 23:26:00,27.9,20.4,29.82,SSE,148,0.0,2.0,73,0.00,,,0.00,Wunderground v.1.15,2013-12-01 04:26:00,
2013-11-30 23:31:00,27.9,20.4,29.81,SE,136,1.0,1.0,73,0.00,,,0.00,Wunderground v.1.15,2013-12-01 04:31:00,
2013-11-30 23:36:00,27.8,20.3,29.81,South,169,1.0,2.0,73,0.00,,,0.00,Wunderground v.1.15,2013-12-01 04:36:00,
2013-11-30 23:42:00,27.8,20.3,29.81,ESE,115,1.0,2.0,73,0.00,,,0.00,Wunderground v.1.15,2013-12-01 04:42:00,
2013-11-30 23:48:00,27.8,20.3,29.80,ESE,119,1.0,3.0,73,0.00,,,0.00,Wunderground v.1.15,2013-12-01 04:48:00,
2013-11-30 23:54:00,27.7,20.2,29.80,SE,143,1.0,3.0,73,0.00,,,0.00,Wunderground v.1.15,2013-12-01 04:54:00,